TimeICT,TemperatureF,Dew PointF,Humidity,Sea Level PressureIn,VisibilityMPH,Wind Direction,Wind SpeedMPH,Gust SpeedMPH,PrecipitationIn,Events,Conditions,WindDirDegrees,DateUTC
12:00 AM,75.2,71.6,89,29.92,5.0,Calm,Calm,-,N/A,,Mostly Cloudy,0,2013-10-09 17:00:00
12:30 AM,75.2,71.6,89,29.92,5.0,Calm,Calm,-,N/A,,Mostly Cloudy,0,2013-10-09 17:30:00
1:00 AM,76,74,93,29.86,6,Calm,Calm,,,,Partly Cloudy,,2013-10-09 18:00:00
1:00 AM,73.4,71.6,94,29.92,5.0,Calm,Calm,-,N/A,,Mostly Cloudy,0,2013-10-09 18:00:00
1:30 AM,73.4,71.6,94,29.89,5.0,Calm,Calm,-,N/A,,Mostly Cloudy,0,2013-10-09 18:30:00
2:00 AM,73.4,71.6,94,29.89,5.0,Calm,Calm,-,N/A,,Mostly Cloudy,0,2013-10-09 19:00:00
2:30 AM,73.4,71.6,94,29.86,5.0,Calm,Calm,-,N/A,,Mostly Cloudy,0,2013-10-09 19:30:00
3:00 AM,73.4,71.6,94,29.86,5.0,Calm,Calm,-,N/A,,Mostly Cloudy,0,2013-10-09 20:00:00
3:30 AM,73.4,71.6,94,29.86,5.0,Calm,Calm,-,N/A,,Mostly Cloudy,0,2013-10-09 20:30:00
4:00 AM,73.4,71.6,94,29.86,5.0,Calm,Calm,-,N/A,,Mostly Cloudy,0,2013-10-09 21:00:00
4:30 AM,73.4,71.6,94,29.86,5.0,Calm,Calm,-,N/A,,Mostly Cloudy,0,2013-10-09 21:30:00
5:00 AM,73.4,71.6,94,29.86,5.0,Calm,Calm,-,N/A,,Mostly Cloudy,0,2013-10-09 22:00:00
5:30 AM,73.4,71.6,94,29.86,5.0,Calm,Calm,-,N/A,,Mostly Cloudy,0,2013-10-09 22:30:00
6:00 AM,73.4,71.6,94,29.89,5.0,Calm,Calm,-,N/A,,Mostly Cloudy,0,2013-10-09 23:00:00
6:30 AM,73.4,71.6,94,29.89,5.0,Calm,Calm,-,N/A,,Mostly Cloudy,0,2013-10-09 23:30:00
7:00 AM,75,74,95,29.85,6,Calm,Calm,,,,Scattered Clouds,,2013-10-10 00:00:00
7:00 AM,75.2,73.4,94,29.89,5.6,Calm,Calm,-,N/A,,Scattered Clouds,0,2013-10-10 00:00:00
7:30 AM,77.0,75.2,94,29.92,5.6,Calm,Calm,-,N/A,,Scattered Clouds,0,2013-10-10 00:30:00
8:00 AM,78.8,73.4,83,29.92,5.6,Calm,Calm,-,N/A,,Scattered Clouds,0,2013-10-10 01:00:00
8:30 AM,80.6,75.2,84,29.95,6.2,NNE,5.8,-,N/A,,Mostly Cloudy,30,2013-10-10 01:30:00
9:00 AM,82.4,73.4,74,29.95,5.6,WNW,5.8,-,N/A,,Mostly Cloudy,300,2013-10-10 02:00:00
9:30 AM,80.6,73.4,79,29.95,5.0,WNW,6.9,-,N/A,Rain,Light Rain,300,2013-10-10 02:30:00
10:00 AM,80.6,75.2,84,29.95,6.2,WNW,11.5,-,N/A,,Mostly Cloudy,300,2013-10-10 03:00:00
10:30 AM,84.2,75.2,74,29.95,6.2,NW,10.4,-,N/A,,Mostly Cloudy,320,2013-10-10 03:30:00
11:00 AM,84.2,75.2,74,29.95,6.2,WNW,10.4,-,N/A,,Mostly Cloudy,300,2013-10-10 04:00:00
11:30 AM,84.2,73.4,70,29.95,6.2,WNW,11.5,-,N/A,,Mostly Cloudy,300,2013-10-10 04:30:00
12:00 PM,84.2,75.2,74,29.92,6.2,West,10.4,-,N/A,,Scattered Clouds,270,2013-10-10 05:00:00
12:30 PM,86.0,73.4,66,29.89,6.2,WNW,13.8,-,N/A,,Scattered Clouds,290,2013-10-10 05:30:00
1:00 PM,85,77,72,29.88,6,WNW,5.8,,,,Scattered Clouds,300,2013-10-10 06:00:00
1:00 PM,86.0,75.2,70,29.89,6.2,West,13.8,-,N/A,,Scattered Clouds,270,2013-10-10 06:00:00
1:30 PM,86.0,75.2,70,29.89,6.2,West,11.5,-,N/A,,Scattered Clouds,280,2013-10-10 06:30:00
2:00 PM,86.0,75.2,70,29.86,6.2,West,12.7,-,N/A,,Scattered Clouds,280,2013-10-10 07:00:00
2:30 PM,86.0,75.2,70,29.86,6.2,WNW,11.5,-,N/A,,Scattered Clouds,300,2013-10-10 07:30:00
3:00 PM,86.0,73.4,66,29.86,6.2,WNW,11.5,-,N/A,,Scattered Clouds,290,2013-10-10 08:00:00
3:30 PM,86.0,73.4,66,29.83,6.2,West,11.5,-,N/A,,Scattered Clouds,270,2013-10-10 08:30:00
4:00 PM,84.2,73.4,70,29.83,6.2,WNW,9.2,-,N/A,,Scattered Clouds,290,2013-10-10 09:00:00
4:30 PM,84.2,73.4,70,29.83,6.2,West,11.5,-,N/A,,Scattered Clouds,280,2013-10-10 09:30:00
5:00 PM,84.2,73.4,70,29.83,6.2,West,10.4,-,N/A,,Scattered Clouds,280,2013-10-10 10:00:00
5:30 PM,82.4,73.4,74,29.83,6.2,WNW,5.8,-,N/A,,Scattered Clouds,300,2013-10-10 10:30:00
6:00 PM,82.4,73.4,74,29.83,6.2,WNW,5.8,-,N/A,,Scattered Clouds,300,2013-10-10 11:00:00
6:30 PM,78.8,73.4,83,29.86,6.2,Calm,Calm,-,N/A,,Scattered Clouds,0,2013-10-10 11:30:00
7:00 PM,82,76,77,29.81,6,Calm,Calm,,,,Scattered Clouds,,2013-10-10 12:00:00
7:00 PM,77.0,73.4,89,29.86,6.2,Calm,Calm,-,N/A,,Scattered Clouds,0,2013-10-10 12:00:00
7:30 PM,78.8,73.4,83,29.86,6.2,Calm,Calm,-,N/A,,Scattered Clouds,0,2013-10-10 12:30:00
8:00 PM,77.0,73.4,89,29.89,6.2,Calm,Calm,-,N/A,,Scattered Clouds,0,2013-10-10 13:00:00
8:30 PM,77.0,73.4,89,29.92,6.2,Calm,Calm,-,N/A,,Scattered Clouds,0,2013-10-10 13:30:00
9:00 PM,75.2,73.4,94,29.92,6.2,Calm,Calm,-,N/A,,Scattered Clouds,0,2013-10-10 14:00:00
9:30 PM,75.2,73.4,94,29.92,6.2,Calm,Calm,-,N/A,,Scattered Clouds,0,2013-10-10 14:30:00
10:00 PM,75.2,73.4,94,29.95,6.2,Calm,Calm,-,N/A,,Scattered Clouds,0,2013-10-10 15:00:00
10:30 PM,75.2,73.4,94,29.95,6.2,Calm,Calm,-,N/A,,Scattered Clouds,0,2013-10-10 15:30:00
11:00 PM,75.2,73.4,94,29.95,6.2,Calm,Calm,-,N/A,,Scattered Clouds,0,2013-10-10 16:00:00
11:30 PM,75.2,73.4,94,29.95,6.2,Calm,Calm,-,N/A,,Scattered Clouds,0,2013-10-10 16:30:00